Showing default

IRIDIUM 135, 43070

Orbit data source: Space-Track

IRIDIUM 135, 43070 is a payload satellite owned by Iridium (US) in LEO that was launched on Sat, 23 Dec 2017 UTC via an FALCON 9 launch vehicle from the Air Force Western Test Range (AFWTR). Payloads include a variety of satellites, spacecraft, and rockets equipped with specific instruments for various scientific and technological missions. These include communications satellites like Starlink; space stations such as the ISS; scientific satellites like the Hubble; Earth observation satellites from companies like Planet Labs, Umbra, and HawkEye 360; GPS; miniature CubeSats for education and research; and military/defense satellites.

Loading next visibility...
IRIDIUM 135 details
Identifier
43070, 2017-083A
Orbit
LEO
Last TLE update7 hours ago
Origin
Flag of USIridium (US)
ManufacturerOATK SSG Gilbert
MissionOperational Commercial Communications
Bus & MotorELITEBUS, Unknown motor
Mass860 kg wet, 700 kg dry
Launch date (UTC)
2017-12-23 (7 years ago)
Launch vehicle
FALCON 9
Launch site
Air Force Western Test Range (AFWTR)
Object type
Payload
Rocket body
Debris
Shape & HBRTrap Box + 2 Pan, 9.4 m
Radar Cross Section14.423 m², Large (>1 m²)

Expand to show TLE details & history

TLE from 7 hours ago
0 IRIDIUM 135
1 43070U 17083A   24361.23628643 -.00000069  00000-0 -31668-4 0  9998
2 43070  86.3993 186.8387 0002105  93.5378 266.6058 14.34217659367043
Epoch: 2024-12-26T05:40Z
Definitive object data (Epoch: 2024-12-26T05:40:15.147Z)
Latitude-0.00009°
Longitude6.557°
Altitude780.808 km
Speed7.463 km/s
True Right ascension12h 27m 21s
True Declination0° 00' 00"
Sunlit
Object was in daylight at TLE epoch
Visualization TLE readout
Latitude18.51088°
Longitude-174.77339°
Altitude779.648 km
Speed7.466 km/s
Apparent Right ascension00h 24m 50s
Apparent Declination-8° 48' 34"
Sunlit
Object is in daylight
Visualization observer readout
Local Sidereal Time12:28:45
Azimuth1.866° NNE
Elevation-58.881°
Doppler factor1
Orbital elements
Apogee altitude776.138 km
Perigee altitude773.126 km
Semi-major axis7,152.769 km
Eccentricity0.0002105
Inclination86.3993°
RAAN186.8387°
Arg. of periapsis93.5378°
True anomaly266.58172°
Mean anomaly266.6058°
Eccentric anomaly266.59376°
Mean motion3.58783 °/min
BSTAR-0.000031668
Orbital period100.34 mins
Loading maneuver chart data...
Loading historical data...
Loading historical data...
Loading historical data...
Loading historical data...
Loading historical data...
Loading historical data...
Loading historical data...

IRIDIUM 135 Visibility forecast

Observer location: undefined°, undefined

Span
Click to sort rows by Start time (UTC) header in descending order
Start Az.
Max El. time (UTC)
Max El. Az.
Max El.
End time (UTC)
End Az.
8 mins2024-12-26 14:10:07.667Z227.448° WSW2024-12-26 14:14:07.667Z282.365° WNW23.584°2024-12-26 14:18:07.667Z335.623° NNW
8 mins2024-12-27 00:41:07.667Z2.429° NNE2024-12-27 00:44:07.667Z47.786° ENE44.185°2024-12-27 00:49:07.667Z174.278° S
5 mins2024-12-27 11:58:07.667Z106.947° ESE2024-12-27 12:00:07.667Z79.032° E17.657°2024-12-27 12:03:07.667Z41.086° NE
|